Location: Hysolar-Haus
(48.7436°N, 9.0965°E)
Time: 11:10:38
(UTC+00:00)

Transit 4A - Visible Passes

Search period start: 22 November 2019 00:00
Search period end: 02 December 2019 00:00
Orbit: 869 x 976 km, 66.8° (Epoch: 21 November)

Date Brightness Start Highest point End Pass type
(mag) Time Alt. Az. Time Alt. Az. Time Alt. Az.
22 Nov 10.2 02:19:27 15° NNE 02:19:27 15° NNE 02:21:44 10° NE visible
22 Nov 8.9 04:02:59 22° NNW 04:06:17 39° NE 04:11:43 10° ESE visible
22 Nov 8.1 05:47:08 10° NW 05:52:49 50° WSW 05:58:23 10° S visible
23 Nov 10.1 02:28:56 18° NE 02:28:56 18° NE 02:32:00 10° ENE visible
23 Nov 8.5 04:12:28 24° NNW 04:15:48 51° NE 04:21:28 10° ESE visible
23 Nov 8.5 05:56:42 10° NW 06:01:59 35° WSW 06:07:10 10° S visible
24 Nov 9.8 02:38:29 21° NE 02:38:29 21° NE 02:42:15 10° ENE visible
24 Nov 8.0 04:22:02 28° NNW 04:25:15 69° NE 04:31:03 10° SE visible
24 Nov 8.9 06:06:28 10° NW 06:11:04 24° WSW 06:15:37 10° SSW visible
25 Nov 9.6 02:48:06 26° NE 02:48:06 26° NE 02:52:23 10° E visible
25 Nov 7.7 04:31:39 31° NW 04:34:37 87° WSW 04:40:26 10° SSE visible
26 Nov 9.2 02:57:48 32° NE 02:57:48 32° NE 03:02:23 10° ESE visible
26 Nov 7.8 04:41:22 33° NW 04:43:55 63° WSW 04:49:38 10° SSE visible
27 Nov 8.9 03:07:36 40° ENE 03:07:36 40° ENE 03:12:15 10° ESE visible
27 Nov 8.1 04:51:09 33° WNW 04:53:07 44° WSW 04:58:35 10° S visible
28 Nov 8.6 03:17:28 47° E 03:17:28 47° E 03:21:56 10° SE visible
28 Nov 8.5 05:01:02 28° W 05:02:16 31° WSW 05:07:15 10° S visible
28 Nov 9.8 18:21:22 10° S 18:22:42 16° SSE 18:22:42 16° SSE visible
29 Nov 8.5 03:27:25 47° SE 03:27:25 47° SE 03:31:27 10° SE visible
29 Nov 9.0 05:10:59 21° WSW 05:11:20 21° WSW 05:15:34 10° SSW visible
29 Nov 9.3 18:30:07 10° S 18:32:48 26° S 18:32:48 26° S visible
30 Nov 8.8 03:37:27 36° SSE 03:37:27 36° SSE 03:40:46 10° SSE visible
30 Nov 9.4 05:21:00 14° WSW 05:21:00 14° WSW 05:23:15 10° SW visible
30 Nov 9.7 16:57:30 10° SE 16:59:16 12° ESE 16:59:16 12° ESE visible
30 Nov 8.8 18:39:08 10° SSW 18:42:50 37° S 18:42:50 37° S visible
01 Dec 9.2 03:47:31 25° S 03:47:31 25° S 03:49:53 10° SSE visible
01 Dec 9.2 17:04:49 10° SSE 17:08:59 19° ESE 17:09:13 19° ESE visible
01 Dec 8.5 18:48:22 10° SSW 18:52:47 49° SW 18:52:47 49° SW visible
